Location: Bagnara
(41.0500°N, 14.7833°E)
Time: 01:01:51
(UTC+00:00)

Meteor 2-3 Rocket - Visible Passes

Search period start: 24 October 2021 00:00
Search period end: 03 November 2021 00:00
Orbit: 841 x 886 km, 81.2° (Epoch: 23 October)

Date Brightness Start Highest point End Pass type
(mag) Time Alt. Az. Time Alt. Az. Time Alt. Az.
26 Oct 6.1 18:42:44 10° N 18:42:58 11° N 18:42:58 11° N visible
27 Oct 6.0 18:34:36 10° N 18:35:06 12° N 18:35:06 12° N visible
28 Oct 5.8 18:26:28 10° N 18:27:16 14° NNE 18:27:16 14° NNE visible
29 Oct 5.7 18:18:21 10° N 18:19:29 16° NNE 18:19:29 16° NNE visible
29 Oct 6.6 20:01:46 10° NNW 20:01:47 10° NNW 20:01:47 10° NNW visible
30 Oct 5.5 18:10:13 10° N 18:11:45 18° NNE 18:11:45 18° NNE visible
30 Oct 6.4 19:53:37 10° NNW 19:54:03 12° NNW 19:54:03 12° NNW visible
31 Oct 5.3 18:02:04 10° N 18:04:05 20° NNE 18:04:05 20° NNE visible
31 Oct 6.3 19:45:28 10° NNW 19:46:24 14° NW 19:46:24 14° NW visible
01 Nov 5.1 17:53:57 10° N 17:56:31 24° NNE 17:56:31 24° NNE visible
01 Nov 6.1 19:37:19 10° NNW 19:38:50 17° NW 19:38:50 17° NW visible
02 Nov 4.8 17:45:49 10° N 17:49:03 28° NE 17:49:03 28° NE visible
02 Nov 5.9 19:29:10 10° NNW 19:31:23 21° NW 19:31:23 21° NW visible
